Location: Unspecified
(0.0000°N, 0.0000°E)
Time: 22:55:40
(UTC+01:00)

Ariane H10+ - Visible Passes

Search period start: 25 November 2014 00:00
Search period end: 05 December 2014 00:00
Orbit: 332 x 31786 km, 6.9° (Epoch: 25 November)

Date Brightness Start Highest point End Pass type
(mag) Time Alt. Az. Time Alt. Az. Time Alt. Az.
26 Nov 7.6 02:00:04 72° ENE 02:00:04 72° ENE 10:17:03 10° E visible
26 Nov 3.7 20:03:34 10° WNW 20:05:14 21° NNW 20:05:14 21° NNW visible
27 Nov 7.1 05:53:19 10° W 14:15:43 84° S 14:28:29 10° E visible
28 Nov 8.2 00:27:38 33° E 00:27:38 33° E 08:26:42 10° E visible
29 Nov 7.9 04:20:07 38° W 05:10:33 86° SSW 12:50:32 10° E visible
30 Nov 12.3 03:56:57 10° E 05:07:55 13° E 05:57:41 10° E visible
01 Dec 7.5 02:47:31 79° WNW 02:52:13 88° N 11:10:24 10° E visible
03 Dec 7.9 01:14:47 56° E 01:14:47 56° E 09:25:44 10° E visible
03 Dec 3.6 19:14:23 10° WNW 19:17:19 25° N 19:19:15 10° NE visible
04 Dec 7.5 05:07:06 20° W 13:23:21 84° S 13:40:07 10° E visible
04 Dec 8.5 23:41:57 22° E 23:41:57 22° E 00:00:00 13° E visible
